Location: Glencliff
(36.1226°N, 86.7183°W)
Time: 12:49:10
(UTC+00:00)

Cosmos 1486 Rocket - Pass Details

Date: 25 August 2019
Orbit: 759 x 783 km, 74.1° (Epoch: 15 September)

Event Time Altitude Azimuth Distance (km) Brightness Sun altitude
Rises 09:33:10 0° 338° (NNW) 3,226 7.3 -19.5°
Reaches altitude 10° 09:35:33 10° 336° (NNW) 2,299 6.5 -19.0°
Maximum altitude 09:40:41 63° 256° (WSW) 849 3.9 -18.1°
Drops below altitude 10° 09:45:50 10° 176° (S) 2,296 6.2 -17.2°
Sets 09:48:13 0° 173° (S) 3,222 7.0 -16.8°
